User: anonymous   Login
Location: Aciu?a
(46.2833°N, 22.4500°E)
Time: 10:30:20
(UTC+00:00)
Language:

COSMOS 1579 COOLANT - Orbit

View from above orbital plane
View from above orbital plane
View from above satellite
View from above satellite

Ground track
Ground track

The orbit data is extracted from the following two-line orbital elements,

1 26517U 84069J   22228.89810453  .00000030  00000-0  96367-4 0  9990
2 26517  65.0527 323.6395 0035149 148.5017 316.9949 13.90329377460619
Epoch (UTC): 16 August 2022 21:33:16
Eccentricity: 0.0035149
inclination: 65.0527°
perigee height: 902 km
apogee height: 953 km
right ascension of ascending node: 323.6395°
argument of perigee: 148.5017°
revolutions per day: 13.90329377
mean anomaly at epoch: 316.9949°
orbit number at epoch: 46061

The dashed part of the orbit path shows where the satellite is in the earth's shadow,  

DLR